Weather History for Fort Myers, FL

Change the Weather History Date:

Tuesday, January 22, 2013

  Actual Average Record
Temperature  
Mean Temperature 65 °F 64 °F  
Max Temperature 72 °F 75 °F 88 °F (1962)
Min Temperature 57 °F 54 °F 30 °F (1985)
Degree Days  
Heating Degree Days 0 3  
Month to date heating degree days 8 85  
Since 1 July heating degree days 66 178  
Cooling Degree Days 0 3  
Month to date cooling degree days 146 65  
Year to date cooling degree days 146 65  
Growing Degree Days 14 (Base 50)    
Moisture  
Dew Point 48 °F    
Average Humidity 61    
Maximum Humidity 90    
Minimum Humidity 44    
Precipitation  
Precipitation 0.00 in 0.07 in 1.40 in (1906)
Month to date precipitation 0.46 1.36  
Year to date precipitation 0.46 1.36  
Sea Level Pressure  
Sea Level Pressure 30.16 in    
Wind  
Wind Speed 10 mph (NNE)    
Max Wind Speed 17 mph    
Max Gust Speed 23 mph    
Visibility 10 miles    
Events      
T = Trace of Precipitation, MM = Missing Value Source: NWS Daily Summary

Daily Weather History Graph

Daily Weather History Graph

Search for Another Location

Airport:

Trip Planner

Search our weather history database for the weather conditions in past years. The results will help you decide how hot, cold, wet, or windy it might be!

Date:

Astronomy

Jan. 22, 2013 Rise Set
Actual Time 7:16 AM EST 6:02 PM EST
Civil Twilight 6:51 AM EST 6:27 PM EST
Nautical Twilight 6:23 AM EST 6:55 PM EST
Astronomical Twilight 5:55 AM EST 7:22 PM EST
Moon 2:28 PM EST (1/22) 3:33 AM EST (1/22)
Length of Visible Light 11h 35m
Length of Day
10h 46m
Waxing Gibbous, 82% of the Moon is Illuminated
Jan 22
Waxing Gibbous
Jan 26
Full
Feb 3
Last Quarter
Feb 10
New
Feb 17
First Quarter

Hourly Weather History & Observations

Time (EST) Temp. Dew Point Humidity Pressure Visibility Wind Dir Wind Speed Gust Speed Precip Events Conditions
12:53 AM 62.1 °F 55.9 °F 80% 30.09 in 10.0 mi NNW 6.9 mph - N/A   Clear
1:53 AM 61.0 °F 54.0 °F 78% 30.07 in 10.0 mi NNW 9.2 mph - N/A   Partly Cloudy
2:53 AM 60.1 °F 53.1 °F 78% 30.06 in 10.0 mi NNW 9.2 mph - N/A   Scattered Clouds
3:53 AM 60.1 °F 53.1 °F 78% 30.07 in 10.0 mi North 5.8 mph - N/A   Scattered Clouds
4:53 AM 59.0 °F 52.0 °F 78% 30.07 in 10.0 mi North 5.8 mph - N/A   Clear
5:34 AM 60.8 °F 51.8 °F 72% 30.08 in 10.0 mi North 6.9 mph - N/A   Mostly Cloudy
5:53 AM 59.0 °F 52.0 °F 78% 30.09 in 10.0 mi North 5.8 mph - N/A   Mostly Cloudy
6:04 AM 59.0 °F 51.8 °F 77% 30.10 in 10.0 mi North 4.6 mph - N/A   Scattered Clouds
6:53 AM 59.0 °F 52.0 °F 78% 30.12 in 10.0 mi North 6.9 mph - N/A   Clear
7:53 AM 59.0 °F 51.1 °F 75% 30.14 in 10.0 mi North 6.9 mph - N/A   Partly Cloudy
8:53 AM 61.0 °F 48.9 °F 64% 30.16 in 10.0 mi NNE 9.2 mph - N/A   Partly Cloudy
9:53 AM 63.0 °F 46.9 °F 56% 30.18 in 10.0 mi NNE 10.4 mph - N/A   Clear
10:53 AM 66.0 °F 46.9 °F 50% 30.20 in 10.0 mi North 11.5 mph - N/A   Scattered Clouds
11:53 AM 66.9 °F 46.9 °F 49% 30.19 in 10.0 mi NNE 11.5 mph - N/A   Clear
12:53 PM 69.1 °F 48.0 °F 47% 30.17 in 10.0 mi NNE 10.4 mph - N/A   Clear
1:53 PM 70.0 °F 46.9 °F 44% 30.15 in 10.0 mi NE 10.4 mph 18.4 mph N/A   Clear
2:53 PM 70.0 °F 46.9 °F 44% 30.14 in 10.0 mi NNE 12.7 mph - N/A   Clear
3:53 PM 69.1 °F 48.9 °F 49% 30.14 in 10.0 mi NNE 13.8 mph - N/A   Clear
4:53 PM 66.9 °F 48.9 °F 52% 30.17 in 10.0 mi NNE 9.2 mph - N/A   Clear
5:53 PM 66.0 °F 48.0 °F 52% 30.19 in 10.0 mi NNE 12.7 mph 19.6 mph N/A   Clear
6:53 PM 64.0 °F 46.9 °F 54% 30.20 in 10.0 mi NE 10.4 mph - N/A   Clear
7:53 PM 63.0 °F 46.0 °F 54% 30.22 in 10.0 mi NE 10.4 mph - N/A   Clear
8:53 PM 61.0 °F 43.0 °F 52% 30.26 in 10.0 mi NE 9.2 mph - N/A   Clear
9:53 PM 60.1 °F 41.0 °F 49% 30.26 in 10.0 mi NE 9.2 mph - N/A   Clear
10:53 PM 59.0 °F 39.0 °F 48% 30.27 in 10.0 mi NE 9.2 mph - N/A   Clear
11:53 PM 57.9 °F 41.0 °F 53% 30.26 in 10.0 mi NNE 11.5 mph - N/A   Clear